TimeCDT,TemperatureF,Dew PointF,Humidity,Sea Level PressureIn,VisibilityMPH,Wind Direction,Wind SpeedMPH,Gust SpeedMPH,PrecipitationIn,Events,Conditions,WindDirDegrees,DateUTC
12:53 AM,66.0,64.0,93,29.81,9.0,Calm,Calm,-,N/A,,Clear,0,2013-09-25 05:53:00
1:53 AM,66.0,64.0,93,29.81,10.0,Calm,Calm,-,N/A,,Clear,0,2013-09-25 06:53:00
2:53 AM,68.0,63.0,84,29.81,10.0,Calm,Calm,-,N/A,,Clear,0,2013-09-25 07:53:00
3:53 AM,66.0,63.0,90,29.81,10.0,Calm,Calm,-,0.01,,Clear,0,2013-09-25 08:53:00
4:53 AM,66.0,62.1,87,29.81,10.0,Calm,Calm,-,N/A,,Clear,0,2013-09-25 09:53:00
5:53 AM,64.9,60.1,84,-9999,10.0,Calm,Calm,-,N/A,,Clear,0,2013-09-25 10:53:00
6:53 AM,64.0,57.9,80,29.83,10.0,NNW,3.5,-,N/A,,Clear,340,2013-09-25 11:53:00
7:53 AM,66.0,60.1,81,29.86,10.0,NW,3.5,-,N/A,,Clear,320,2013-09-25 12:53:00
8:53 AM,71.1,60.1,68,29.86,10.0,NNW,6.9,-,N/A,,Clear,340,2013-09-25 13:53:00
9:53 AM,77.0,59.0,54,29.87,10.0,North,9.2,-,N/A,,Clear,360,2013-09-25 14:53:00
10:53 AM,81.0,60.1,49,29.87,10.0,North,6.9,-,N/A,,Clear,360,2013-09-25 15:53:00
11:53 AM,84.0,57.9,41,29.86,10.0,NNW,10.4,16.1,N/A,,Clear,330,2013-09-25 16:53:00
12:53 PM,84.9,57.0,38,29.84,10.0,North,10.4,16.1,N/A,,Clear,10,2013-09-25 17:53:00
1:53 PM,84.9,57.9,40,29.82,10.0,North,9.2,-,N/A,,Clear,10,2013-09-25 18:53:00
2:53 PM,86.0,59.0,40,29.81,10.0,NW,8.1,-,N/A,,Clear,310,2013-09-25 19:53:00
3:53 PM,86.0,59.0,40,29.80,10.0,Variable,6.9,-,N/A,,Clear,0,2013-09-25 20:53:00
4:53 PM,86.0,57.9,38,29.80,10.0,West,10.4,-,N/A,,Clear,270,2013-09-25 21:53:00
5:53 PM,84.9,57.9,40,29.80,10.0,NW,6.9,-,N/A,,Clear,320,2013-09-25 22:53:00
6:53 PM,79.0,61.0,54,29.81,10.0,Calm,Calm,-,N/A,,Clear,0,2013-09-25 23:53:00
7:53 PM,73.0,62.1,68,29.81,10.0,Calm,Calm,-,N/A,,Clear,0,2013-09-26 00:53:00
8:53 PM,70.0,62.1,76,29.83,10.0,Calm,Calm,-,N/A,,Clear,0,2013-09-26 01:53:00
9:53 PM,66.0,62.1,87,29.84,10.0,Calm,Calm,-,N/A,,Clear,0,2013-09-26 02:53:00
10:53 PM,64.9,61.0,87,29.85,10.0,Calm,Calm,-,N/A,,Clear,0,2013-09-26 03:53:00
11:53 PM,64.9,61.0,87,29.85,10.0,Calm,Calm,-,N/A,,Clear,0,2013-09-26 04:53:00